TimeCST,TemperatureF,Dew PointF,Humidity,Sea Level PressureIn,VisibilityMPH,Wind Direction,Wind SpeedMPH,Gust SpeedMPH,PrecipitationIn,Events,Conditions,WindDirDegrees,DateUTC
12:56 AM,-9.9,-22.0,55,30.57,10.0,NW,15.0,-,N/A,,Clear,310,2014-01-06 06:56:00
1:56 AM,-11.0,-20.9,62,30.56,10.0,NW,12.7,-,N/A,,Clear,310,2014-01-06 07:56:00
2:56 AM,-11.0,-22.0,58,30.56,10.0,NW,16.1,23.0,N/A,,Clear,310,2014-01-06 08:56:00
3:56 AM,-9.9,-20.9,59,30.54,10.0,NW,16.1,-,N/A,,Clear,320,2014-01-06 09:56:00
4:56 AM,-11.0,-20.0,64,30.56,10.0,WNW,9.2,-,N/A,,Clear,300,2014-01-06 10:56:00
5:56 AM,-11.0,-18.9,68,30.56,10.0,WNW,10.4,-,N/A,,Mostly Cloudy,300,2014-01-06 11:56:00
6:56 AM,-11.0,-18.9,68,30.55,10.0,NW,6.9,-,N/A,,Partly Cloudy,310,2014-01-06 12:56:00
7:56 AM,-13.0,-18.9,75,30.56,10.0,WNW,4.6,-,N/A,,Clear,300,2014-01-06 13:56:00
8:56 AM,-9.0,-17.0,68,30.58,10.0,NW,8.1,-,N/A,,Clear,310,2014-01-06 14:56:00
9:56 AM,-6.0,-16.1,62,30.58,10.0,NNW,16.1,-,N/A,,Clear,330,2014-01-06 15:56:00
10:28 AM,-5.1,-16.1,59,30.43,10.0,NW,17.3,26.5,N/A,,Mostly Cloudy,310,2014-01-06 16:28:00
10:56 AM,-4.0,-15.0,59,30.58,10.0,NW,15.0,-,N/A,,Overcast,310,2014-01-06 16:56:00
11:21 AM,-2.0,-15.0,54,30.41,10.0,WNW,17.3,-,N/A,,Scattered Clouds,300,2014-01-06 17:21:00
11:54 AM,-0.4,-13.0,55,30.40,10.0,WNW,17.3,24.2,N/A,,Mostly Cloudy,290,2014-01-06 17:54:00
11:56 AM,-0.9,-13.0,57,30.54,10.0,WNW,18.4,-,N/A,,Mostly Cloudy,290,2014-01-06 17:56:00
12:37 PM,1.0,-13.0,52,30.37,10.0,WNW,21.9,27.6,N/A,,Scattered Clouds,300,2014-01-06 18:37:00
12:56 PM,1.0,-13.0,52,30.51,10.0,WNW,19.6,-,N/A,,Partly Cloudy,290,2014-01-06 18:56:00
1:56 PM,3.0,-13.0,47,30.48,10.0,WNW,18.4,-,N/A,,Clear,300,2014-01-06 19:56:00
2:56 PM,5.0,-11.9,46,30.47,10.0,WNW,16.1,-,N/A,,Clear,290,2014-01-06 20:56:00
3:56 PM,6.1,-11.0,45,30.45,10.0,WNW,15.0,24.2,N/A,,Clear,300,2014-01-06 21:56:00
4:56 PM,3.9,-11.9,48,30.45,10.0,WNW,12.7,-,N/A,,Clear,300,2014-01-06 22:56:00
5:56 PM,1.0,-13.0,52,30.44,10.0,West,5.8,-,N/A,,Clear,280,2014-01-06 23:56:00
6:56 PM,-0.9,-13.0,57,30.43,10.0,Calm,Calm,-,N/A,,Clear,0,2014-01-07 00:56:00
7:56 PM,-6.0,-15.0,65,30.42,10.0,Calm,Calm,-,N/A,,Clear,0,2014-01-07 01:56:00
8:56 PM,-7.1,-15.0,68,30.41,10.0,Calm,Calm,-,N/A,,Clear,0,2014-01-07 02:56:00
9:56 PM,-6.0,-14.1,68,30.38,10.0,South,3.5,-,N/A,,Clear,180,2014-01-07 03:56:00
10:56 PM,-2.0,-11.0,66,30.34,10.0,Calm,Calm,-,N/A,,Mostly Cloudy,0,2014-01-07 04:56:00
11:56 PM,-0.9,-9.0,69,30.30,10.0,East,3.5,-,N/A,,Clear,90,2014-01-07 05:56:00